RH
44 52 65 76 80 84 83 81 80 74 74 80 70 61 65 57 49 47 44 42 39 43 47 55 58 55 55 56 60 63 69 71 73 80 84 86 84 80 74 73 74 71 71 71 71 74 73 70 68 68 71 74 80 84 84 83 85 85 84 83 82 82 83 81 78 77 75 70 63 49 38 41 37 39 45 38 37 36 37 43 41 38 38 38 41 43 44 40 33 29 27 27 27 27 29 30 29
58 60 68 75 79 83 85 88 88 76 71 79 70 57 56 43 36 40 38 37 35 38 43 48 51 51 52 52 57 66 66 61 63 71 78 80 80 77 71 69 70 68 70 71 71 70 68 67 67 69 71 72 75 79 80 80 81 81 80 79 79 80 80 77 74 72 68 60 48 37 32 37 36 37 41 38 38 38 40 45 40 37 40 43 46 47 45 38 30 28 29 29 28 27 30 32 32
67 68 75 78 76 79 85 91 92 79 70 70 57 42 35 24 23 29 32 41 40 41 47 51 58 61 59 53 48 53 52 48 54 63 71 70 71 72 67 69 69 67 68 70 71 68 67 66 68 71 72 74 75 77 79 80 78 76 78 79 80 77 72 68 66 64 59 52 40 30 29 34 36 36 37 37 38 39 41 41 37 37 40 45 50 51 44 35 29 29 32 32 28 25 27 32 32
75 73 78 83 76 75 79 84 87 77 68 59 44 34 27 22 25 33 41 48 46 43 49 53 59 62 60 55 45 37 34 41 47 53 64 63 60 63 62 63 63 63 64 66 68 68 68 68 69 71 72 74 76 77 77 76 74 75 77 80 79 73 65 60 58 56 48 41 34 28 27 29 33 37 38 38 39 41 43 44 44 41 40 45 51 54 45 34 29 29 33 32 27 20 20 28 30
85 80 78 81 73 72 77 79 80 75 71 54 40 37 30 30 35 45 52 54 56 50 52 53 49 50 55 53 40 28 25 33 38 43 55 58 54 54 56 56 54 57 61 61 62 65 66 68 68 66 66 67 68 68 68 66 65 67 69 70 66 59 55 51 48 43 37 34 30 26 25 28 33 40 42 39 43 44 46 52 50 45 40 44 51 52 45 34 28 29 32 29 23 15 13 19 22
88 84 78 79 72 72 79 80 82 79 75 56 40 41 37 39 43 46 49 52 58 55 50 45 35 33 42 44 32 22 19 24 32 36 41 47 45 43 50 54 51 48 52 55 54 58 62 64 65 63 61 61 61 57 54 55 55 57 58 59 55 49 45 41 37 32 29 28 26 28 30 32 34 44 48 43 46 46 49 53 46 44 43 46 50 47 39 30 27 30 30 24 16 12 10 12 15
85 87 81 81 74 72 79 76 78 78 76 58 38 40 44 49 50 46 46 49 55 54 45 39 36 31 32 33 29 24 18 16 25 32 31 32 30 32 42 46 44 39 41 45 41 47 55 56 57 59 60 61 62 57 51 49 53 59 59 60 58 51 45 40 35 28 26 26 31 38 39 38 38 51 59 50 47 43 48 52 45 47 48 48 49 41 33 25 28 32 29 21 13 11 10 10 12
77 86 86 84 79 77 80 75 76 74 64 47 34 40 47 51 53 48 49 55 59 55 44 41 40 36 33 27 23 20 13 10 15 23 22 19 17 19 28 32 34 33 34 33 27 31 43 47 48 51 52 54 59 57 50 48 53 59 59 58 56 52 49 46 40 35 33 35 40 41 38 40 44 53 58 52 47 42 46 51 47 50 50 48 46 36 28 25 30 34 29 19 12 11 9 10 10
72 84 92 86 81 82 81 77 81 80 58 36 33 39 44 46 46 45 47 54 62 59 46 41 37 32 30 25 23 17 10 9 9 12 12 18 19 13 18 26 32 35 30 21 15 19 30 35 37 40 41 42 51 54 49 50 52 53 53 48 45 48 50 49 46 43 40 41 41 39 36 39 47 52 51 48 50 50 48 47 48 52 51 49 43 33 27 27 34 37 28 17 12 10 9 9 9
78 81 90 88 84 83 80 75 75 79 61 37 33 41 47 44 46 49 49 56 61 54 41 33 31 32 29 25 26 19 12 12 11 12 12 21 23 16 21 28 33 38 28 17 15 18 25 31 32 32 36 41 49 54 47 46 50 49 49 45 43 48 52 54 54 49 43 44 42 41 41 40 48 51 46 45 51 57 53 48 49 49 50 48 40 31 28 30 36 38 27 17 13 11 10 9 8
75 71 85 93 89 85 83 79 75 78 65 41 35 46 52 47 48 47 50 58 55 51 45 34 30 30 26 23 24 20 18 17 18 21 18 21 23 20 26 34 37 38 28 21 22 23 27 33 35 35 39 46 49 51 45 41 42 42 45 45 46 52 56 58 59 55 50 52 50 52 53 48 49 47 44 44 49 57 55 52 51 50 50 47 39 28 29 33 37 37 29 21 18 14 11 10 8
72 66 82 94 92 90 86 81 80 81 68 47 40 48 50 47 47 44 52 60 56 58 50 37 32 27 23 23 24 24 21 22 25 29 29 26 28 26 29 38 38 36 36 33 29 28 31 30 31 33 35 40 42 42 41 40 38 39 44 46 48 53 58 58 61 61 58 58 58 64 66 60 53 45 44 43 44 52 54 55 54 51 50 47 38 27 27 34 37 37 31 25 22 17 14 11 9
80 72 80 91 93 94 88 81 80 80 73 57 49 51 47 45 52 52 55 58 59 59 48 40 34 25 23 23 25 26 22 24 28 35 38 33 37 37 36 43 41 39 44 44 39 37 38 34 32 34 34 37 40 41 39 39 36 36 43 47 49 50 55 62 65 64 62 60 57 67 74 71 65 51 47 43 41 48 50 52 51 48 50 48 37 25 25 33 38 37 32 28 25 21 17 13 10
75 70 80 87 88 95 90 82 80 79 78 71 61 59 51 46 53 54 52 52 55 56 53 48 36 24 20 21 28 30 26 24 27 35 39 37 40 42 41 45 45 47 50 51 50 48 46 43 44 44 44 45 46 48 46 44 43 43 47 52 56 52 55 62 65 67 67 58 52 66 75 74 73 63 53 45 42 46 46 44 44 46 50 47 36 24 23 30 36 36 33 30 27 23 18 14 10
66 60 81 87 84 94 90 83 83 80 78 77 74 72 63 52 43 40 46 52 51 54 58 53 47 38 25 25 30 31 31 27 28 34 38 41 41 39 41 44 45 48 52 55 52 50 51 48 49 50 51 52 50 53 55 55 54 56 58 60 62 58 59 59 59 69 74 62 53 65 73 72 76 70 57 49 44 43 45 43 45 49 49 46 36 23 22 28 34 36 36 32 27 24 19 14 10
66 55 73 85 88 88 88 90 86 80 74 71 73 78 76 64 46 34 42 58 54 49 59 58 55 53 40 32 30 30 33 29 30 35 36 40 40 39 41 43 44 44 47 51 52 50 51 49 50 53 55 56 54 56 59 60 60 61 62 62 63 59 59 59 58 71 80 73 63 66 73 74 77 73 61 54 48 43 47 47 48 51 49 45 34 22 21 27 32 36 37 31 26 22 17 13 9
67 56 61 74 87 81 78 82 77 78 75 69 69 77 83 79 69 49 39 52 51 41 56 59 50 64 64 39 28 32 35 33 34 35 34 35 38 41 41 41 40 41 41 43 50 51 49 50 52 53 55 56 58 60 62 63 63 64 63 63 63 61 61 60 60 71 80 77 69 70 78 78 77 75 67 57 49 49 53 52 49 50 52 46 33 22 20 25 32 35 34 28 23 19 15 12 8
61 55 54 62 80 76 69 68 67 75 77 74 72 76 82 83 84 72 46 35 39 41 50 50 49 74 75 41 30 37 38 41 41 37 33 33 36 38 38 40 39 40 42 41 45 47 48 52 53 51 49 49 52 56 58 58 60 62 62 63 62 63 66 63 63 70 77 78 73 74 79 80 80 79 73 62 54 57 59 55 51 52 52 44 32 22 18 24 31 33 29 24 20 16 13 10 7
56 54 53 57 73 70 61 62 63 68 72 72 70 77 85 87 89 89 72 42 37 47 46 41 44 62 61 39 33 38 41 45 47 42 35 33 36 39 39 41 44 46 47 45 46 47 47 48 47 47 43 40 40 41 44 44 46 49 54 58 58 60 62 65 68 70 75 79 76 76 77 79 82 80 77 70 62 62 60 56 54 53 51 43 32 23 16 21 28 29 26 22 18 15 12 8 7
57 52 49 48 63 69 64 63 60 59 62 60 61 72 85 91 84 84 92 74 48 46 52 46 37 44 49 40 35 38 43 45 48 46 41 40 38 41 42 46 51 50 48 48 46 42 39 35 35 36 34 32 31 29 30 32 36 39 43 50 54 56 56 60 66 69 75 77 77 78 76 78 81 79 78 75 66 64 63 59 56 52 50 42 33 24 15 18 25 26 23 21 16 12 10 7 6
62 42 42 44 51 64 65 62 58 53 51 51 56 59 69 85 82 73 86 92 69 52 58 54 38 40 46 42 37 38 44 46 48 46 47 46 42 45 45 50 54 49 47 44 40 33 27 28 29 29 29 29 28 28 29 33 38 39 42 46 51 57 58 60 63 68 75 75 76 79 76 78 80 79 80 78 69 66 66 61 56 52 49 41 33 24 13 15 23 24 22 20 15 11 9 8 9
66 33 35 51 54 59 61 59 56 51 46 47 55 51 52 66 69 66 75 88 81 64 63 61 44 36 40 42 36 36 43 45 45 45 47 43 43 49 45 49 52 47 45 36 30 26 22 24 24 27 31 31 31 32 35 38 40 43 49 52 56 63 64 67 69 70 73 74 75 76 77 78 79 81 82 80 73 67 66 61 55 52 48 40 32 21 12 15 22 23 21 19 17 13 9 9 11
64 31 27 44 54 60 64 67 62 58 54 50 53 48 44 44 42 51 67 81 85 78 69 62 48 31 34 41 33 33 42 43 42 42 42 35 38 45 43 47 48 44 40 30 24 20 21 24 21 26 30 32 34 34 36 36 39 46 52 57 62 66 66 69 74 75 75 76 77 76 77 78 79 83 84 82 74 66 65 60 53 50 45 38 28 17 11 15 22 23 20 17 16 12 7 8 11
61 31 31 42 53 63 68 76 70 64 65 63 58 46 39 38 32 38 52 64 80 89 76 61 51 32 28 35 33 32 37 43 42 38 35 32 36 43 44 44 43 41 33 26 28 23 21 25 24 26 27 33 36 34 36 37 41 46 52 64 67 65 65 66 72 77 75 76 80 80 82 83 85 85 84 83 74 68 66 57 51 50 43 34 23 13 11 15 21 23 18 14 11 7 7 9 12
67 36 40 52 60 67 71 79 72 61 60 64 65 50 39 38 33 36 47 53 68 85 79 66 54 35 26 29 34 33 34 45 43 34 34 34 36 40 42 42 40 36 28 26 33 29 21 21 22 22 26 32 34 35 40 44 47 46 54 68 68 66 67 66 72 76 74 77 81 84 86 87 89 89 86 83 78 73 63 52 51 51 40 27 18 11 11 16 24 25 17 12 8 6 8 12 15
64 40 42 53 58 62 69 73 65 56 55 59 60 51 49 49 39 32 42 53 61 76 83 73 53 37 29 26 33 32 31 45 43 32 35 37 33 34 37 39 38 31 26 29 28 26 25 21 17 18 25 30 32 35 40 48 51 46 51 58 60 65 69 67 72 75 75 78 80 82 85 87 91 93 90 86 82 72 58 50 53 50 36 25 22 15 11 24 33 25 15 18 16 10 12 16 19
42 41 52 60 58 56 60 58 48 49 61 65 54 47 54 62 55 41 41 57 69 80 89 78 53 42 40 33 35 34 32 41 40 32 34 32 29 31 33 35 33 23 27 33 22 22 28 22 14 17 26 30 33 36 40 50 51 49 51 52 56 63 66 66 68 71 74 78 79 81 83 86 89 90 91 88 82 68 52 50 54 47 30 23 26 19 14 24 27 14 13 26 26 17 21 28 25
27 36 49 55 57 57 54 50 46 51 65 71 57 47 54 61 64 55 49 63 80 89 92 80 52 44 49 44 43 40 36 39 35 33 34 28 26 27 28 34 30 18 26 29 17 21 23 16 15 18 24 30 33 36 42 47 49 50 49 49 56 62 65 67 67 69 72 74 77 80 80 84 88 86 86 84 77 62 50 53 52 39 26 20 19 17 16 17 16 13 16 22 24 23 28 35 29
23 27 36 48 60 65 64 62 63 61 62 71 65 52 51 52 52 55 53 62 80 90 93 81 51 42 49 49 52 46 36 36 31 31 32 25 25 25 25 34 29 21 27 21 15 20 16 14 17 16 21 30 35 41 46 48 50 52 49 52 62 68 69 68 68 70 71 71 73 79 80 82 86 85 82 79 71 57 51 53 45 32 27 22 15 17 21 16 16 19 18 19 23 25 30 39 35
21 19 32 59 72 74 77 78 75 65 59 66 66 53 46 42 43 55 60 66 84 95 97 84 54 43 45 46 56 48 33 36 35 29 28 24 24 23 26 31 24 21 24 17 17 18 12 17 18 14 18 23 33 47 52 50 50 51 50 54 61 67 68 65 66 70 72 72 72 77 80 82 85 84 81 75 63 53 53 50 39 29 23 19 17 20 21 14 12 13 19 28 29 26 33 44 41
26 23 38 68 81 83 85 84 77 64 58 61 62 55 44 38 45 61 72 82 95 100 97 82 57 46 43 44 54 48 36 38 37 28 24 25 23 22 28 29 18 14 15 15 19 16 13 17 15 15 17 18 30 48 58 55 49 49 51 52 55 60 60 60 63 66 71 72 74 79 83 85 85 82 78 68 57 54 55 47 32 23 19 21 23 19 14 12 16 19 21 28 33 34 38 46 44
22 23 36 60 73 78 74 73 73 61 57 62 69 72 56 46 57 75 91 97 98 101 98 77 58 50 44 48 52 47 44 41 36 30 25 29 27 22 30 28 15 11 11 12 15 14 15 16 15 15 15 17 24 38 57 62 50 48 55 57 57 57 55 57 60 65 71 73 75 79 82 84 79 76 69 60 58 57 53 40 24 18 19 22 22 16 14 17 23 29 31 31 33 37 36 44 47
26 28 38 60 70 76 72 69 71 61 59 60 64 72 65 61 71 84 93 95 98 102 91 70 59 54 47 51 50 45 50 47 41 36 29 34 27 18 26 25 16 11 9 12 13 13 15 15 16 15 13 15 18 26 43 54 52 52 58 61 60 59 58 58 59 64 72 77 78 77 80 78 70 66 61 59 60 52 42 30 19 18 18 18 22 24 21 20 19 25 38 36 26 27 32 42 46
42 45 55 72 71 76 76 73 69 57 56 55 55 65 70 75 80 86 91 96 102 91 74 69 68 62 53 51 48 46 52 53 51 44 33 35 30 23 29 26 19 12 7 11 12 13 14 13 17 17 14 13 15 20 27 39 54 59 60 61 60 58 60 61 59 61 67 74 81 81 80 73 64 63 60 56 51 40 32 24 18 18 17 20 26 23 19 22 19 19 30 27 22 31 40 41 37
56 56 67 76 69 78 76 70 69 57 54 52 51 60 71 83 85 88 98 97 89 69 61 73 73 67 61 54 50 49 54 55 55 49 36 33 30 24 24 18 14 11 7 10 11 12 13 12 15 17 13 11 12 14 17 29 46 55 57 59 59 54 56 61 59 56 58 64 72 76 72 65 61 58 52 45 38 33 29 21 17 16 14 17 19 19 25 30 25 20 21 18 21 33 45 42 33
61 67 76 69 63 80 76 66 71 63 59 56 48 49 61 82 84 80 88 84 69 57 57 71 78 72 61 57 56 51 56 59 53 49 38 29 27 26 22 13 11 10 7 8 10 11 11 11 13 13 13 11 11 11 13 19 30 45 59 63 61 56 57 62 57 51 49 48 51 53 50 47 43 38 33 34 33 29 22 14 13 15 14 14 18 23 27 26 21 19 18 16 18 26 39 39 30
68 84 88 71 62 76 73 67 75 69 63 59 51 51 60 78 82 71 68 65 60 56 57 70 81 77 63 57 57 51 57 64 57 51 44 32 26 27 24 16 11 10 9 7 8 9 9 10 11 11 12 10 10 11 12 14 18 32 51 60 57 57 63 64 55 47 42 37 32 28 27 25 25 24 26 33 33 23 14 11 11 13 15 16 19 19 16 13 12 14 14 13 16 19 26 26 22
66 87 89 76 67 68 70 71 76 71 63 56 49 56 67 79 88 79 63 54 55 55 57 66 72 76 72 58 55 52 53 64 63 52 44 39 31 22 21 22 17 11 9 8 7 8 8 8 9 9 9 9 9 9 10 13 14 19 31 43 48 50 56 57 52 45 35 29 22 18 18 18 22 26 28 34 32 17 9 10 8 9 15 19 19 15 10 9 10 13 13 11 13 16 18 21 21
47 76 79 76 73 65 63 67 71 64 59 57 50 55 65 73 85 89 79 68 65 60 56 57 59 71 76 63 62 62 52 56 63 55 46 44 39 25 18 21 20 12 9 9 8 7 7 7 8 8 8 7 7 7 8 10 13 14 18 29 39 46 48 50 52 47 33 26 21 19 19 20 23 25 30 35 27 11 6 8 8 9 13 16 15 12 8 9 10 11 14 13 13 16 19 19 19
43 71 67 66 77 71 63 67 66 54 56 62 59 63 67 70 81 91 93 87 83 77 67 58 54 65 74 69 70 67 53 48 53 56 51 45 43 33 21 18 19 17 12 10 8 7 7 7 7 7 7 6 5 5 6 6 9 13 15 20 29 38 44 46 50 47 36 30 28 26 25 22 20 21 27 30 18 7 7 8 9 9 10 12 11 9 8 9 9 10 16 19 14 16 20 18 18
46 68 61 58 67 65 62 68 60 45 56 66 63 66 67 71 83 93 98 96 94 89 79 69 60 63 72 74 71 61 54 49 47 54 53 47 46 38 27 19 17 19 17 11 8 8 8 6 6 6 6 6 5 4 4 4 6 9 11 14 19 25 31 36 41 42 37 35 33 30 28 22 18 18 18 19 13 8 8 8 9 9 9 11 10 9 8 8 9 12 18 22 23 25 21 18 20
38 53 58 61 64 60 61 68 54 39 54 72 79 80 76 78 81 85 93 96 98 95 87 81 74 68 70 77 77 68 69 62 48 50 51 49 50 45 33 23 18 18 16 13 9 8 9 7 5 6 6 6 5 4 4 4 4 5 6 7 11 14 18 22 27 30 30 30 28 25 22 18 17 17 12 10 12 11 9 8 9 9 9 10 10 10 9 7 9 13 17 22 30 35 23 16 21
30 43 50 56 60 59 61 65 55 43 47 65 87 94 88 85 81 82 87 87 95 99 93 87 85 80 72 73 78 80 86 77 54 47 47 47 52 54 46 30 21 19 16 15 13 8 7 7 5 4 5 5 5 4 4 4 4 4 4 4 6 8 10 13 15 19 21 22 21 18 16 15 13 12 8 7 9 9 11 11 9 8 9 10 11 10 9 10 10 11 17 21 24 28 22 16 21
31 40 43 49 52 54 58 63 65 61 52 56 81 92 83 78 77 78 79 78 87 91 89 89 91 89 77 69 74 81 89 87 72 57 48 46 50 57 58 42 27 26 26 22 18 12 7 8 7 4 4 5 5 5 3 4 5 5 6 5 5 5 6 8 9 11 13 15 15 14 12 11 8 6 5 5 6 6 9 11 9 10 10 9 10 10 11 16 17 12 14 18 16 20 25 27 31
36 34 39 49 49 50 54 59 66 67 57 52 69 77 69 71 73 73 76 80 80 76 81 91 94 94 86 76 75 79 87 92 87 73 55 47 46 51 58 51 35 32 40 39 31 22 11 9 9 4 4 4 4 5 4 3 4 4 6 6 6 6 5 5 6 6 8 9 10 9 8 6 5 4 4 6 7 7 10 10 10 12 11 10 10 10 12 16 17 12 11 14 15 18 24 33 39
27 16 30 43 42 43 45 48 53 59 54 50 64 70 62 62 64 72 86 90 82 74 76 83 86 92 95 89 81 80 85 90 89 84 72 56 45 45 52 53 43 33 38 43 41 34 21 13 11 7 5 4 3 5 4 4 4 3 4 5 6 7 7 7 6 6 6 6 6 6 6 5 5 6 7 8 8 10 12 12 12 13 11 11 12 12 12 13 14 13 11 13 16 19 21 27 30
12 8 21 29 35 38 38 44 44 46 45 38 52 74 79 68 51 59 82 83 76 72 70 72 73 78 87 89 90 88 86 87 86 85 84 70 54 49 49 50 50 39 34 39 41 39 31 21 13 8 7 5 3 4 4 3 4 3 4 4 5 7 8 8 8 8 8 8 8 7 7 7 8 8 9 10 11 11 13 14 13 14 13 13 13 13 14 14 14 12 10 12 15 18 21 23 21
8 11 12 19 38 40 43 56 44 39 53 46 35 47 72 74 46 46 69 75 74 70 67 73 72 71 72 73 84 92 86 86 87 81 78 75 66 60 53 50 54 47 39 43 42 35 31 29 21 11 7 6 4 3 4 4 3 4 4 3 4 5 7 8 9 10 10 10 10 10 10 10 10 11 11 11 12 12 13 14 15 14 14 14 14 14 14 13 14 12 10 11 11 14 19 21 20
19 15 13 30 55 52 54 71 58 51 69 72 54 40 51 58 39 41 61 67 72 70 64 65 64 65 66 64 72 85 86 88 87 76 69 68 66 65 60 53 53 52 47 48 47 39 31 33 34 22 10 7 7 5 3 4 3 3 4 4 4 4 5 6 7 8 9 11 12 12 13 13 12 13 13 13 14 14 14 14 15 15 14 14 14 13 14 13 14 15 12 12 12 11 14 17 17
42 38 43 59 73 64 63 75 73 71 75 76 78 69 59 54 46 54 62 59 62 62 56 54 53 55 59 64 70 74 80 89 87 76 70 68 63 64 66 59 53 54 54 48 47 48 39 35 41 36 19 8 6 7 5 4 4 3 4 4 3 4 4 5 6 7 8 9 11 13 14 14 15 15 15 15 15 15 15 15 15 15 14 13 13 12 12 12 13 15 14 12 12 11 11 13 13
58 57 57 62 72 68 65 71 72 75 77 76 83 84 76 72 73 76 73 66 63 58 53 52 54 53 49 57 75 81 82 90 93 84 79 79 70 63 66 66 60 56 56 48 43 49 46 39 43 43 31 17 8 7 7 5 5 4 4 4 3 4 4 4 5 5 7 8 10 13 14 15 15 15 16 16 16 16 16 15 15 15 14 13 13 13 12 12 11 12 13 11 10 10 10 11 12
56 56 47 48 63 64 59 65 65 64 69 74 79 81 81 81 82 79 73 70 66 60 55 52 56 60 55 53 67 83 89 91 97 93 89 91 85 70 62 61 62 61 59 51 44 48 48 42 45 47 42 32 17 9 9 7 7 6 4 4 4 4 4 4 5 5 6 7 8 10 13 15 16 16 16 16 16 17 16 16 16 15 14 14 14 14 13 13 12 11 11 11 10 11 12 12 13
47 53 53 55 62 62 58 59 60 58 62 67 68 70 74 74 71 68 67 71 69 65 60 52 50 57 65 67 66 73 83 90 96 98 98 98 92 82 69 57 57 59 59 54 46 50 49 41 45 50 48 42 30 18 12 8 8 8 7 6 5 5 5 5 5 5 6 6 7 8 9 11 13 14 16 16 16 16 16 16 16 15 15 14 14 15 14 13 13 12 11 11 11 11 12 13 13
37 42 51 63 63 61 57 56 59 56 55 60 62 65 67 65 65 63 63 67 65 61 57 49 47 52 59 68 72 71 74 80 86 91 97 99 92 90 84 69 57 51 56 59 54 55 51 38 42 52 47 41 38 30 20 11 8 9 8 8 7 6 6 6 6 5 6 6 6 6 7 8 9 10 11 13 14 14 15 15 15 15 15 15 14 14 14 13 12 12 11 11 11 11 11 13 13
45 39 43 62 67 63 59 59 61 56 57 67 72 74 75 74 75 71 65 65 61 57 57 55 57 61 59 57 62 67 69 71 75 76 82 88 89 91 90 83 71 57 52 55 56 58 55 46 56 70 59 43 38 35 27 16 10 9 10 9 9 9 7 6 7 6 6 6 6 7 7 6 7 8 8 9 10 11 12 12 13 13 13 14 15 15 15 15 13 13 13 12 12 12 12 13 14
52 46 39 51 59 57 59 63 60 55 63 75 74 72 76 82 83 76 72 76 73 67 67 70 70 72 75 72 69 68 67 67 69 70 71 75 80 84 85 86 85 71 53 49 55 59 58 60 73 84 77 62 53 44 35 28 18 12 11 11 11 11 9 8 7 7 6 7 6 6 6 7 7 7 7 7 8 8 9 10 10 11 12 12 14 15 15 16 16 16 15 14 14 14 13 14 15
60 60 51 60 62 49 52 64 65 63 68 74 76 72 70 74 75 72 76 81 79 73 74 80 82 79 82 84 78 70 63 60 62 65 68 71 78 83 87 90 92 84 67 60 64 64 64 73 80 79 76 74 71 64 57 56 46 27 17 16 15 14 13 11 8 7 7 7 8 8 7 7 7 7 7 7 7 7 7 8 8 8 10 11 12 13 14 15 17 17 17 17 17 15 14 14 15
67 61 55 72 79 59 51 61 68 71 70 68 74 75 69 67 69 70 74 74 67 63 66 75 80 79 78 78 78 74 67 60 59 62 65 69 72 75 79 83 84 85 84 81 81 78 75 77 72 69 75 78 80 80 75 73 70 55 35 23 20 19 17 13 9 9 9 7 8 9 9 10 11 11 11 10 9 8 7 7 8 8 8 8 9 11 11 13 14 15 17 18 17 17 17 16 16
Wind_Speed
10 9 7 7 8 9 10 9 10 9 8 9 10 12 11 9 9 8 8 7 6 5 5 6 7 7 7 7 6 6 6 6 9 9 9 8 6 8 10 11 10 10 12 14 13 12 11 10 10 10 10 11 12 12 12 12 12 13 13 13 13 14 14 14 14 13 11 11 10 9 8 8 7 7 8 8 8 9 9 9 9 9 9 8 9 10 11 11 12 13 13 13 12 11 11 11 11
9 8 7 7 7 8 8 8 9 8 9 10 10 11 9 9 9 7 7 7 6 6 6 7 7 7 7 7 7 7 7 6 8 10 9 9 8 8 10 11 10 11 13 14 14 12 11 10 11 11 11 11 11 11 12 12 13 13 14 14 14 14 14 13 12 12 11 10 10 9 9 8 7 7 7 7 8 9 9 10 10 10 10 9 9 10 11 11 13 13 13 12 11 10 11 11 11
9 8 7 8 7 7 7 7 7 7 9 10 10 9 8 8 8 7 6 6 6 6 6 7 7 6 6 7 6 6 7 6 7 9 9 7 8 8 9 11 10 11 13 14 13 13 12 11 12 12 12 11 11 11 11 12 13 14 14 15 14 13 13 12 11 10 10 10 10 9 9 8 7 7 7 7 7 7 7 8 10 11 12 11 10 10 11 11 12 13 13 12 10 9 10 11 12
9 8 7 7 7 7 7 7 7 7 9 10 10 9 9 8 7 6 6 6 6 5 5 6 7 5 5 5 4 5 7 7 7 9 9 4 6 8 8 9 10 11 12 13 13 13 13 12 12 12 12 11 11 12 12 12 13 13 13 13 13 11 11 11 10 10 10 10 10 9 9 9 8 8 8 8 7 7 6 6 9 11 12 11 10 10 11 12 12 13 13 11 9 8 9 11 12
8 7 6 6 6 6 8 9 8 9 10 10 10 10 9 8 7 6 6 6 5 5 5 6 6 5 4 3 3 5 7 8 7 8 10 5 4 8 8 8 8 9 11 12 12 12 12 12 12 12 12 12 12 12 12 12 12 12 12 12 11 11 11 10 10 10 10 10 9 9 10 10 10 9 8 8 8 7 6 6 8 10 11 11 11 10 12 13 13 13 12 11 9 8 9 10 11
7 6 6 5 5 6 7 8 8 11 10 9 11 9 8 7 6 6 6 6 5 5 4 4 5 5 4 3 3 5 7 9 9 7 9 7 5 7 7 7 7 9 10 10 10 11 11 11 11 11 11 11 11 11 11 11 11 11 11 10 10 9 9 9 10 10 9 9 9 10 10 10 10 10 9 9 8 8 7 7 8 9 10 11 11 11 12 13 13 12 11 10 9 9 9 10 11
7 6 5 4 4 6 7 7 8 11 10 9 10 8 7 6 5 6 5 5 5 5 5 5 5 5 5 3 3 5 6 8 10 8 8 8 6 7 7 7 7 8 8 8 8 9 10 9 9 9 9 9 10 10 10 10 10 10 10 9 9 9 8 8 9 9 9 9 9 10 9 9 9 10 9 8 8 8 8 7 7 8 9 11 11 11 12 12 13 12 11 10 9 9 10 10 10
6 5 4 3 4 6 7 7 8 10 10 8 8 7 7 5 5 5 5 5 5 5 5 5 5 6 6 4 4 6 7 9 10 9 7 7 6 6 7 6 7 7 7 8 8 8 9 8 7 8 7 7 8 8 8 9 10 10 9 9 8 8 7 7 8 8 9 9 9 9 8 8 9 9 9 9 8 8 8 8 7 8 8 10 11 12 12 12 13 12 11 10 9 9 9 9 9
7 6 4 1 2 4 6 7 9 9 9 7 7 7 6 5 5 4 4 4 5 5 5 6 6 6 6 5 5 7 9 10 10 10 8 8 7 7 7 7 7 7 7 7 7 7 7 7 6 7 6 6 7 8 8 8 9 9 9 8 8 8 8 8 8 9 10 9 8 8 8 8 9 9 9 9 9 8 9 9 8 7 8 9 11 11 12 12 13 12 11 10 10 10 10 9 9
9 8 7 1 2 4 5 6 7 8 8 7 7 7 6 6 5 4 4 4 5 5 5 6 6 6 7 6 6 6 8 8 9 10 9 9 8 8 8 7 7 7 6 6 6 6 6 5 5 6 6 6 6 7 8 8 8 8 8 7 8 8 9 8 9 9 9 9 8 7 7 8 8 8 9 9 8 8 9 9 8 7 8 9 10 11 11 13 12 11 11 10 10 10 10 9 9
8 9 10 2 2 4 6 6 7 7 7 7 7 7 6 6 5 5 4 4 5 5 5 5 5 6 6 6 6 5 6 7 7 8 8 9 8 7 8 7 7 7 6 6 6 5 4 4 4 4 5 5 5 5 6 7 7 8 7 7 7 8 8 8 9 9 8 8 7 6 6 7 7 8 9 9 9 8 9 10 8 8 9 10 10 10 11 12 12 11 10 10 9 9 9 9 8
7 9 10 5 1 5 6 7 8 6 6 7 7 7 5 5 5 5 4 3 4 5 5 5 5 6 5 6 6 5 5 6 7 6 6 6 6 6 7 7 6 6 6 6 5 5 4 4 4 3 4 4 4 4 5 6 6 6 6 6 7 7 7 8 9 8 7 7 6 6 6 6 7 7 8 8 9 9 9 11 10 10 10 10 10 10 11 12 12 11 10 9 8 8 8 8 8
8 11 10 7 1 6 7 6 7 6 6 8 6 6 6 5 5 5 4 3 4 4 4 4 5 5 5 6 6 6 6 6 6 6 6 6 6 5 6 7 6 6 6 6 5 5 5 4 4 3 3 3 3 4 5 5 6 6 6 7 7 8 7 7 7 7 7 6 6 6 6 6 6 7 7 7 9 10 10 11 11 10 10 10 10 10 11 11 11 10 9 9 8 8 8 8 7
7 10 10 9 3 5 6 6 7 7 6 8 6 6 6 6 5 4 4 4 4 4 3 4 5 5 5 5 5 5 6 5 5 5 6 5 5 5 6 6 5 5 5 5 4 4 4 4 4 3 3 3 4 4 5 5 6 6 7 7 8 8 8 6 6 6 7 7 6 7 6 6 7 7 7 8 9 10 10 10 9 10 10 10 10 10 10 11 11 10 9 8 8 7 7 7 6
5 8 11 12 8 6 6 5 7 8 6 8 7 5 5 5 5 5 4 4 4 4 3 4 4 4 4 5 4 4 5 5 4 4 5 6 5 6 6 6 5 5 4 4 4 3 3 3 3 3 3 4 4 5 5 6 6 6 7 8 8 8 8 7 6 7 8 8 7 8 8 8 8 8 8 9 10 11 11 10 9 10 10 10 10 10 11 11 11 10 9 8 8 7 7 6 6
4 6 9 12 10 8 8 5 4 6 6 8 7 6 5 5 5 5 4 4 4 3 3 3 3 4 4 4 4 4 4 4 3 3 4 6 6 6 6 6 5 4 4 3 2 2 1 1 2 2 3 3 4 4 5 6 6 5 6 7 8 8 8 7 8 8 8 8 8 9 10 9 8 9 9 10 12 12 12 11 10 10 10 11 10 10 10 11 11 10 9 8 8 7 7 6 6
4 5 8 11 10 8 8 6 5 6 7 9 8 7 6 6 6 6 5 3 3 3 2 2 3 4 3 3 3 4 3 4 3 3 4 5 6 7 6 6 5 3 3 2 1 1 1 1 2 2 2 3 3 4 5 6 6 5 6 7 8 8 8 8 8 9 9 8 8 9 10 9 9 9 11 12 13 13 13 12 11 10 11 11 10 10 10 11 11 10 9 8 8 7 7 6 6
5 5 6 9 8 7 7 6 6 7 8 9 8 7 5 7 8 7 6 4 3 3 2 2 3 3 2 2 2 4 4 3 3 3 3 4 6 7 6 5 4 3 2 1 1 0 1 2 2 2 3 3 3 4 6 6 6 6 7 7 8 8 9 9 9 9 9 9 9 9 9 9 9 10 11 13 14 14 14 12 11 11 11 11 10 9 10 11 10 10 9 8 8 8 7 6 7
6 5 5 6 6 5 6 6 6 7 7 8 9 8 4 6 9 8 7 5 4 3 2 2 3 3 2 2 2 4 4 4 3 3 2 3 5 6 5 4 3 3 2 1 0 1 1 2 2 2 3 3 3 4 6 7 7 7 7 8 8 9 10 10 10 10 10 10 10 9 10 10 10 11 12 13 15 15 14 12 11 11 11 11 10 9 10 11 10 10 9 8 8 8 7 7 7
5 4 5 4 4 3 4 5 4 4 5 6 9 8 5 3 6 7 7 5 4 3 2 3 3 2 1 2 2 3 4 4 3 3 2 3 4 5 4 4 3 3 3 2 1 1 2 2 1 2 3 3 4 4 5 6 6 6 7 8 9 9 10 11 11 11 11 11 10 10 10 10 10 11 13 15 17 16 15 13 12 12 12 11 10 9 10 11 11 10 8 8 7 8 8 7 7
5 4 5 6 4 2 2 3 3 4 4 5 7 8 7 4 4 8 7 5 4 2 2 2 2 1 1 1 2 2 4 4 3 3 3 3 4 4 3 3 3 4 4 3 3 3 2 1 1 1 2 2 3 4 4 4 4 5 6 7 7 8 9 11 11 11 12 11 10 10 10 11 10 10 13 16 17 17 15 14 13 12 12 11 10 9 10 11 10 9 8 8 7 7 8 7 7
6 4 6 7 7 4 4 5 5 6 7 6 7 8 7 5 7 10 8 7 4 2 2 2 2 2 1 1 1 1 4 4 3 3 3 3 4 3 2 3 3 4 4 4 4 4 4 3 3 3 3 3 3 2 3 3 3 4 5 5 5 6 7 9 11 11 12 12 11 10 10 10 10 10 12 14 16 17 16 14 13 12 12 11 9 9 10 11 10 9 9 8 8 8 7 6 7
7 5 6 7 7 7 6 8 7 8 9 8 9 10 10 9 9 10 8 7 4 3 3 2 3 3 2 1 1 1 3 3 3 2 3 3 3 2 2 3 3 4 4 5 5 5 5 6 6 6 5 4 3 2 1 2 2 2 3 3 3 5 5 7 8 9 11 12 13 11 11 11 10 11 12 14 15 17 16 14 13 12 11 10 9 9 11 12 11 9 9 9 9 8 6 6 7
13 7 6 7 7 8 8 9 8 7 9 10 12 12 13 12 10 9 7 6 5 5 4 3 3 3 2 1 1 1 2 3 3 2 3 3 3 3 2 3 4 4 5 6 6 6 7 7 7 8 7 6 4 4 3 2 1 1 1 1 2 4 5 6 6 6 8 11 12 12 12 11 11 11 12 13 15 17 17 15 13 12 11 9 9 10 11 12 11 9 8 9 9 8 7 7 8
14 7 4 7 7 7 7 9 9 7 8 10 12 13 14 13 11 10 8 7 6 6 6 4 4 3 2 1 1 1 2 3 3 2 2 3 3 3 2 3 4 5 5 6 6 7 7 8 8 9 8 7 6 6 6 3 1 1 2 3 4 4 4 5 7 6 7 10 12 12 12 12 12 11 11 13 16 18 18 16 14 13 11 10 9 10 12 12 11 10 9 9 8 7 7 8 9
12 9 7 8 8 7 8 10 10 9 10 11 12 13 13 13 12 11 10 9 7 7 7 6 5 3 2 1 2 1 1 2 3 2 1 2 3 3 3 3 4 5 5 5 6 7 8 9 9 10 9 8 6 7 7 5 3 3 3 3 4 5 5 5 7 8 7 10 12 13 13 14 14 13 13 14 16 19 18 16 14 13 11 10 10 11 12 12 11 10 10 9 7 7 8 9 9
10 10 9 9 8 7 9 9 8 9 12 12 12 11 12 13 13 12 11 10 9 8 7 8 6 4 3 2 2 1 1 2 3 3 1 2 2 3 3 3 4 5 5 5 5 6 7 9 10 10 9 7 7 7 7 6 5 4 5 4 4 6 5 4 6 8 8 9 12 13 14 14 14 14 15 15 17 18 17 15 14 12 10 9 10 11 12 11 10 9 9 7 6 7 9 9 8
11 10 9 11 9 9 10 9 8 9 11 11 11 10 10 11 12 13 12 10 10 7 9 9 7 5 4 3 3 2 1 1 2 3 2 2 3 3 3 3 4 4 4 5 6 6 7 9 10 10 9 8 8 7 8 8 7 6 6 6 6 6 6 5 6 8 8 10 13 13 14 14 14 15 16 17 18 17 15 14 13 11 9 9 10 11 11 11 10 9 7 5 6 7 7 9 7
12 12 10 8 9 10 11 10 8 8 10 12 11 10 8 8 11 14 12 11 10 7 11 10 8 7 6 5 3 2 1 1 0 1 2 2 3 3 3 3 3 4 4 5 6 6 7 8 10 10 9 8 7 7 8 8 8 8 7 8 7 8 8 8 8 8 8 11 13 14 14 15 15 16 16 18 18 17 15 13 12 11 10 10 11 11 10 10 10 9 7 5 6 6 5 7 7
11 13 10 6 8 10 11 10 9 10 13 14 12 9 8 9 12 13 13 13 11 10 12 10 9 7 6 6 4 3 1 1 1 0 2 2 3 3 2 2 2 3 3 4 5 6 8 9 10 11 10 8 8 8 8 8 9 9 8 8 9 10 10 10 9 8 8 10 12 13 14 15 16 16 17 18 18 16 14 12 12 10 10 11 11 11 11 10 9 8 7 6 6 6 6 8 6
11 13 9 6 6 8 10 10 10 11 14 15 14 11 9 10 12 13 13 12 10 12 13 10 9 7 6 5 4 3 2 1 2 1 2 2 2 2 2 2 2 2 3 4 5 6 7 8 9 10 10 9 8 8 8 9 9 10 9 9 10 11 10 9 9 9 8 9 11 14 14 14 15 16 17 17 16 15 13 12 12 11 10 11 11 11 11 10 8 7 5 6 7 6 7 8 6
11 13 10 7 6 7 10 10 10 10 12 15 14 12 9 8 10 10 9 8 9 15 13 11 10 7 6 5 4 3 2 1 2 2 1 2 2 2 2 2 3 3 3 4 5 5 6 7 9 10 10 9 8 8 9 9 9 10 10 10 10 10 10 10 10 10 10 10 13 15 14 14 14 16 18 18 16 14 12 11 11 11 12 12 11 11 9 8 7 6 5 4 6 6 6 7 7
10 12 11 8 6 7 9 9 9 9 10 12 12 13 10 8 8 9 9 6 13 18 14 12 10 8 6 4 3 3 3 1 2 2 1 1 2 2 2 2 3 3 3 5 5 6 6 7 9 9 10 10 9 8 8 8 8 10 10 11 11 11 10 10 11 12 12 13 15 16 15 13 14 16 18 17 16 14 12 11 11 12 12 12 11 10 8 6 5 6 5 4 5 6 6 7 7
10 11 11 9 7 6 8 8 9 9 9 11 12 13 11 8 7 8 10 11 16 16 13 12 10 8 7 5 4 4 3 2 2 3 2 1 1 2 2 2 2 3 3 5 5 6 6 7 8 9 10 10 9 8 8 7 8 9 10 11 12 11 10 11 12 13 13 14 16 17 15 14 15 17 17 16 14 13 12 12 12 12 13 11 10 9 7 6 4 4 4 4 5 5 5 6 6
11 11 10 10 7 5 8 7 9 9 8 10 10 12 11 6 1 4 6 12 15 11 11 12 10 9 7 5 4 4 4 3 2 3 2 2 1 1 2 2 2 2 3 4 5 6 6 7 8 9 9 9 9 8 7 7 8 9 9 10 11 10 11 11 12 13 14 15 16 16 16 16 16 16 16 14 12 11 11 12 12 12 12 10 8 8 7 5 4 4 3 4 4 5 5 4 4
11 12 10 11 7 3 6 6 8 9 8 9 9 10 11 8 8 10 8 8 9 9 9 10 10 9 7 6 5 5 4 3 3 3 3 2 2 0 1 2 2 2 2 3 5 5 6 6 7 8 9 9 9 8 7 8 7 8 9 9 10 10 11 11 11 12 13 15 16 16 16 16 15 15 14 12 11 10 11 13 13 12 11 9 7 7 6 4 5 5 4 3 3 5 5 3 3
7 6 5 8 6 3 5 6 10 12 9 8 8 8 7 7 7 6 6 5 6 8 8 9 10 9 7 7 6 5 5 4 4 4 3 3 2 1 1 2 2 2 2 2 4 4 5 6 6 8 9 9 9 9 8 7 7 7 8 9 9 9 11 11 11 12 13 14 14 15 14 15 14 14 13 11 10 12 12 13 13 11 10 8 7 6 5 4 5 5 4 3 4 4 4 3 3
12 11 6 6 7 3 5 7 9 12 9 7 7 5 4 4 3 2 4 4 5 7 8 9 10 9 9 7 7 6 6 6 5 5 4 3 3 2 1 1 2 2 2 1 2 3 4 6 6 7 8 9 10 9 8 7 6 6 7 7 8 9 10 11 11 11 12 13 13 13 13 13 13 12 12 11 11 13 13 12 11 11 9 7 6 6 5 5 5 5 5 3 4 4 3 3 5
17 14 9 2 7 6 6 9 10 10 7 7 6 3 3 2 1 2 3 3 3 6 8 10 10 11 10 9 8 8 7 6 6 5 5 4 3 2 1 1 1 2 2 1 1 2 3 5 5 6 7 8 10 10 10 8 7 6 6 7 8 8 9 10 11 10 11 12 12 12 11 11 12 12 12 11 12 13 13 11 11 10 9 7 6 6 6 6 6 6 5 3 4 5 4 3 4
13 11 12 9 6 7 9 12 12 10 5 5 5 2 2 3 3 3 5 5 5 7 8 10 12 11 12 12 11 10 8 7 6 6 6 5 4 3 2 1 1 2 2 1 1 1 2 3 4 5 6 7 8 9 10 10 9 8 7 8 8 7 7 9 10 10 11 11 11 11 10 10 10 11 12 12 13 13 12 11 10 9 8 7 6 6 6 6 6 6 4 4 4 5 5 4 4
10 12 14 13 5 7 13 13 14 12 5 5 5 3 4 5 6 6 6 7 8 8 9 11 13 12 13 13 13 12 10 9 7 7 7 6 6 5 3 3 2 2 2 2 1 1 1 2 3 4 4 5 6 8 9 9 10 9 9 10 9 8 8 9 9 10 10 10 9 9 9 9 10 11 12 12 13 12 11 10 9 8 7 7 6 5 5 5 6 5 4 4 4 4 5 5 5
9 12 11 12 11 7 14 14 16 14 7 6 5 4 6 8 10 8 6 7 7 9 12 13 14 14 14 14 14 14 12 11 10 8 8 7 7 6 5 4 3 3 2 3 2 2 1 1 2 3 3 3 5 6 7 8 8 9 10 10 10 9 9 9 9 9 9 9 8 8 9 9 10 11 11 12 11 11 11 10 9 7 6 6 5 4 4 4 5 5 4 4 4 4 5 5 5
10 12 10 11 13 8 12 11 14 14 10 7 5 6 8 11 13 9 7 8 7 9 13 15 16 15 15 15 14 14 14 14 12 10 10 9 8 7 7 6 5 4 3 3 3 3 2 2 2 2 2 2 3 4 5 6 7 8 8 9 10 10 10 10 9 9 9 8 8 8 9 9 10 11 11 10 9 9 9 8 7 6 5 5 5 4 3 4 5 4 4 5 5 5 5 5 5
12 15 16 15 17 14 14 13 14 16 15 10 7 8 10 11 12 8 8 10 9 11 13 15 18 19 17 16 16 16 16 14 13 12 12 10 9 9 9 8 6 5 4 4 4 3 3 3 2 2 2 2 2 3 4 5 6 6 7 8 8 9 9 10 9 9 9 9 8 9 10 10 10 11 9 8 8 8 7 6 6 5 5 4 4 4 4 4 4 3 4 5 6 5 5 5 4
17 20 24 23 25 28 27 26 24 21 17 12 7 10 14 13 11 9 9 12 12 13 12 10 12 18 19 16 16 19 18 15 14 13 13 12 11 11 11 10 8 7 6 5 4 4 3 3 3 3 2 2 2 2 3 4 4 5 6 6 7 7 8 9 9 9 9 9 9 9 10 9 9 9 8 7 7 7 6 5 4 4 4 4 3 4 3 3 3 3 3 4 5 5 5 4 4
22 19 24 27 26 27 26 25 26 26 23 14 6 10 17 17 15 13 11 11 12 12 11 10 8 10 14 15 16 19 18 17 16 14 14 14 13 12 12 11 10 9 8 6 6 5 4 4 4 4 3 3 2 2 2 3 3 3 4 5 5 6 6 7 7 7 7 8 8 8 8 8 8 7 7 6 5 5 5 4 4 3 3 3 2 3 3 3 2 2 3 4 4 4 4 4 3
16 9 14 19 19 21 19 16 20 26 26 19 13 15 17 17 17 15 12 11 11 10 11 13 13 10 10 12 15 19 19 20 19 16 15 15 14 13 13 12 12 11 10 8 7 7 6 5 5 5 5 4 3 3 2 3 3 3 3 3 4 4 5 5 6 6 6 6 6 7 6 6 6 6 5 5 4 4 3 3 3 3 3 2 2 2 2 2 3 3 4 4 4 3 3 3 3
9 5 8 11 11 12 8 6 5 6 6 9 13 21 24 22 19 15 12 12 12 11 10 10 12 13 12 11 11 16 19 21 19 17 16 15 14 15 14 13 13 13 11 10 9 9 8 7 6 6 6 6 5 4 4 3 4 4 3 3 3 3 4 4 5 5 5 5 5 6 5 5 5 5 4 4 3 3 3 3 3 2 2 2 2 2 2 3 3 3 4 5 4 4 3 3 3
4 4 6 6 3 1 4 4 6 7 8 9 8 14 22 24 21 15 13 13 13 13 12 11 11 12 13 13 12 12 16 21 21 18 18 18 17 17 16 14 14 14 13 12 12 11 10 9 8 7 7 7 7 7 6 5 4 4 4 4 3 3 3 3 4 4 4 5 5 5 5 5 5 4 4 4 3 3 3 3 3 3 3 3 3 2 3 4 4 4 4 5 5 4 5 4 4
7 5 6 5 1 2 3 2 3 6 7 5 7 11 16 20 18 15 15 15 16 16 15 15 14 13 12 13 14 14 14 20 23 21 21 21 19 18 17 16 16 15 14 15 14 13 12 10 10 9 8 8 9 8 8 7 6 6 5 5 5 4 4 4 4 4 5 5 5 5 5 5 5 5 4 4 4 4 4 4 4 4 4 4 4 4 4 4 5 5 5 5 5 5 5 5 5
8 4 1 5 3 2 7 7 5 5 2 4 10 12 14 18 17 15 17 18 18 18 17 16 14 13 13 12 13 13 14 18 23 24 23 22 21 20 19 18 17 16 16 16 16 15 14 13 11 11 10 9 9 9 9 9 8 7 7 6 6 5 5 5 5 5 5 5 5 5 5 5 5 5 5 5 5 5 4 4 4 4 5 5 4 4 4 5 5 5 5 5 5 6 6 6 6
6 5 3 6 5 4 8 9 8 8 8 9 14 12 11 16 16 17 19 19 19 17 18 17 14 13 13 13 13 11 13 16 21 24 23 22 22 23 22 20 18 17 17 17 18 17 16 15 14 13 12 11 10 10 10 10 10 10 9 8 8 7 6 6 6 6 6 6 6 6 6 6 6 6 6 6 5 5 5 5 5 5 5 5 5 5 5 5 5 5 6 6 6 6 6 6 7
12 16 11 11 11 6 10 12 13 13 12 13 16 15 13 14 16 17 18 17 17 15 16 18 17 14 12 13 14 14 14 14 16 21 24 25 25 24 23 22 20 19 18 18 19 20 19 18 17 15 14 13 12 11 11 11 11 11 10 10 10 9 8 8 8 7 7 7 7 7 7 7 7 6 6 6 6 6 6 6 6 6 6 6 6 6 5 5 6 6 6 7 7 7 7 7 7
13 12 9 15 16 11 12 15 15 12 11 15 16 16 16 16 17 18 17 17 16 15 16 17 18 19 16 15 15 16 17 15 14 15 20 23 24 24 24 24 24 21 19 19 21 21 20 19 18 17 16 15 15 13 12 12 12 11 11 11 11 11 10 10 9 9 9 8 8 8 8 8 7 7 7 7 6 6 6 6 6 6 6 7 7 6 6 6 6 6 6 6 7 7 8 8 8
12 3 6 16 16 12 7 8 15 13 9 13 15 14 14 13 13 15 17 17 17 16 17 16 16 18 20 19 19 19 18 17 15 12 14 18 19 21 24 25 26 24 21 21 22 20 19 18 19 19 18 16 15 14 14 13 13 13 13 12 12 12 12 12 11 11 10 10 9 9 9 8 8 8 8 8 8 7 7 7 7 7 7 7 7 7 6 6 5 6 6 6 6 7 7 8 8
15 6 5 8 9 12 5 3 13 15 9 12 16 19 18 13 11 13 15 15 15 15 16 17 16 17 18 17 16 16 16 18 18 14 12 14 15 19 22 24 26 26 23 21 21 21 20 20 21 21 20 18 16 15 14 14 15 15 15 14 13 13 13 13 13 13 12 11 11 10 10 9 9 9 9 9 9 9 9 9 9 8 8 8 8 7 7 6 6 6 6 6 6 7 7 7 8
13 13 11 5 8 16 11 6 11 11 11 15 17 20 20 16 15 14 14 15 14 14 15 15 15 15 15 14 13 15 15 17 18 17 13 11 12 16 18 20 23 25 25 22 22 22 22 22 21 20 20 19 18 17 15 15 16 16 15 15 15 15 14 14 14 14 13 13 12 12 11 10 10 10 9 9 9 9 9 9 9 9 9 9 9 9 9 8 8 7 7 7 7 7 7 8 8
13 14 17 16 18 18 12 12 14 12 15 21 22 23 23 20 18 16 17 17 16 15 14 13 14 14 14 13 14 15 16 17 18 18 16 14 13 13 14 16 18 22 26 25 24 24 22 22 21 19 19 21 21 21 19 17 17 17 16 16 16 16 15 14 14 14 14 14 14 13 13 12 12 11 10 10 10 10 10 10 10 10 11 11 11 11 10 10 10 9 9 9 9 9 9 10 10
Wind_Direction
55 63 64 65 77 77 72 64 60 59 61 62 58 60 60 56 55 55 56 56 53 47 48 58 65 67 65 71 68 80 93 92 99 109 115 118 128 135 128 117 113 114 110 104 103 107 111 116 120 126 130 136 142 149 152 149 149 150 151 153 154 155 156 156 155 156 155 152 158 164 160 164 162 152 146 139 134 132 135 138 134 128 124 122 121 117 116 118 119 120 122 122 123 125 126 128 129
48 52 58 66 73 71 66 62 61 58 59 65 59 56 56 52 54 54 53 55 57 56 58 58 56 62 66 76 81 92 101 100 100 103 108 115 122 124 119 114 114 112 108 107 108 111 113 115 120 123 126 131 139 147 147 143 143 145 147 148 149 151 153 155 153 151 151 152 161 169 161 153 147 138 136 135 134 134 141 144 138 131 125 122 119 116 118 120 120 121 120 119 121 124 127 128 129
41 49 65 73 71 64 63 67 69 64 63 65 56 51 51 49 54 55 53 57 61 58 62 66 60 56 62 75 90 108 101 98 109 108 106 116 123 118 114 115 120 115 112 113 113 113 113 115 120 123 127 133 141 143 141 139 141 144 148 149 150 153 155 157 154 152 154 160 171 169 154 144 139 136 135 137 136 133 142 145 136 131 127 124 121 119 119 120 121 120 118 117 118 123 127 127 128
32 41 65 78 75 71 75 76 75 72 67 62 52 45 46 49 54 56 57 55 52 52 55 66 70 63 62 74 100 118 109 110 117 117 112 114 125 119 115 119 123 118 115 116 117 117 116 120 124 128 132 137 142 141 140 141 144 147 149 151 156 160 159 157 156 163 165 167 171 160 147 143 144 143 139 137 133 131 139 140 133 130 127 125 125 125 123 121 122 122 120 119 118 122 125 127 128
28 30 56 74 77 76 76 74 70 71 66 55 51 46 46 50 54 56 56 51 46 53 56 62 68 65 59 65 108 119 126 126 118 121 118 116 130 122 119 121 122 116 113 113 116 119 120 124 128 132 134 138 142 141 141 144 146 147 148 150 156 159 158 157 163 173 171 168 166 157 150 147 147 144 139 139 135 134 139 142 134 128 127 125 126 127 125 124 124 124 123 122 122 124 126 127 129
29 27 41 59 68 66 63 67 69 71 69 52 49 49 52 53 53 56 51 49 45 47 51 53 60 66 68 74 121 129 139 129 119 122 121 125 135 124 122 124 121 115 112 110 112 117 121 126 129 132 134 139 143 142 143 145 146 144 144 148 151 155 158 162 168 173 170 167 163 156 153 148 144 142 143 142 138 137 142 147 136 127 127 124 124 124 124 124 125 125 125 124 125 126 127 129 131
34 29 27 51 71 70 59 59 64 68 70 54 46 48 55 56 53 55 50 49 42 34 32 39 56 70 77 88 112 128 135 123 119 121 122 129 132 123 124 126 117 112 112 110 112 120 125 129 132 133 134 139 143 145 148 149 146 140 141 146 149 151 155 162 167 169 166 163 156 151 151 146 139 143 146 141 139 142 142 140 133 129 128 124 123 122 122 123 124 125 126 125 124 125 126 128 132
21 21 9 53 79 81 69 60 68 72 69 52 45 50 54 53 49 52 51 51 45 36 27 38 55 65 76 94 99 108 116 112 114 119 122 122 118 118 120 120 112 110 111 110 116 124 127 131 133 133 135 140 146 151 156 156 149 143 146 151 153 154 156 159 161 162 157 156 156 150 150 144 139 144 144 140 143 146 138 133 136 135 129 124 121 119 121 125 125 125 127 125 123 122 122 125 129
0 6 350 67 89 92 86 73 79 78 73 57 51 55 53 52 49 54 52 54 53 40 25 36 51 57 67 84 89 92 100 105 110 113 114 110 107 113 117 118 113 108 107 107 113 120 124 130 134 135 138 144 152 159 160 158 152 150 155 157 156 157 158 156 158 158 151 155 160 151 147 145 144 145 148 148 145 143 141 141 144 137 129 124 119 119 123 127 126 127 127 126 123 121 120 121 123
352 4 347 230 131 106 109 92 83 76 71 61 58 60 54 53 52 57 56 59 56 43 33 37 47 49 52 62 72 79 86 96 104 109 111 111 112 114 116 118 114 109 107 108 112 116 122 128 136 140 144 150 157 164 164 158 155 156 160 157 154 156 158 158 158 157 152 154 156 149 145 146 148 151 157 154 140 142 147 139 138 140 136 129 122 123 126 128 130 129 129 127 123 119 117 117 118
351 8 350 312 155 119 114 99 83 70 67 60 59 60 54 54 54 57 56 59 54 46 43 39 42 41 37 42 51 62 77 85 90 99 106 111 115 113 114 117 113 112 115 116 118 120 127 134 139 142 147 152 155 161 163 162 159 160 163 163 162 162 165 166 162 160 160 155 150 152 150 149 156 161 160 152 140 145 145 132 143 159 143 133 128 127 129 133 134 133 132 129 123 117 115 114 114
359 7 355 359 113 130 107 97 90 66 63 66 61 59 57 56 54 59 59 59 56 49 40 33 32 37 33 29 33 38 59 84 89 88 85 91 97 100 112 120 118 120 123 121 128 136 144 152 154 159 161 159 156 156 164 170 168 166 169 175 178 179 180 178 169 164 170 163 153 158 160 162 164 162 158 153 147 147 146 143 159 161 140 135 133 130 134 137 138 137 136 129 123 119 117 114 113
3 7 6 10 360 145 102 89 90 62 60 67 60 53 54 53 52 60 60 53 52 52 38 31 28 30 35 23 21 19 27 63 84 91 82 71 76 83 99 111 116 121 123 126 137 145 150 160 168 175 179 177 174 173 180 184 186 184 185 193 196 198 196 189 178 168 175 178 167 167 167 170 171 165 162 158 151 150 156 158 158 149 137 139 136 134 138 139 140 139 137 130 126 121 116 112 111
3 17 18 14 7 134 103 95 82 60 57 61 60 51 50 50 51 60 60 51 47 53 41 34 30 24 33 25 17 12 13 30 51 81 87 79 76 80 85 95 104 111 119 129 134 135 146 161 171 181 187 192 192 196 198 198 199 198 201 209 208 208 206 200 195 182 185 196 187 179 172 178 183 171 166 163 158 158 162 162 157 148 143 143 142 140 140 141 141 139 137 132 126 119 112 108 109
5 28 23 25 39 67 75 107 81 54 50 50 53 45 47 58 56 55 54 55 45 42 40 33 26 16 27 29 19 14 10 12 20 53 75 81 78 77 85 87 88 97 108 114 119 121 139 164 173 185 196 200 202 206 210 212 210 207 210 216 216 214 210 203 202 196 199 209 202 191 185 187 184 167 169 172 167 164 164 167 165 155 149 147 146 143 141 142 140 139 139 132 125 117 111 108 109
354 28 23 31 46 49 53 90 62 36 42 36 32 25 25 44 54 52 49 64 55 38 38 36 30 18 23 29 28 29 11 1 7 25 56 76 77 73 77 81 83 82 87 97 108 109 136 195 207 216 219 217 219 223 227 230 229 224 223 224 223 221 214 204 200 201 204 209 203 199 196 189 177 163 169 176 172 168 168 172 170 159 153 151 146 142 142 142 139 138 138 131 124 119 116 115 114
353 22 16 28 45 51 50 59 36 22 28 22 15 8 6 13 27 43 45 53 51 42 39 36 42 28 19 26 36 48 28 3 2 6 42 75 84 78 73 72 78 77 74 77 76 73 227 236 251 252 257 261 258 258 253 251 249 241 234 232 228 225 221 211 203 206 207 207 205 204 202 189 178 171 172 177 173 170 173 173 169 162 156 153 146 142 142 141 139 137 135 130 126 122 123 124 119
12 25 6 22 37 45 40 32 30 23 16 12 3 352 357 11 7 16 32 34 30 37 44 50 62 45 9 358 25 62 47 14 359 354 35 75 84 82 81 79 76 75 78 78 66 305 261 253 262 269 271 271 268 268 267 264 260 252 244 240 235 231 230 223 211 210 209 209 209 207 204 195 188 182 180 183 179 174 174 171 169 164 159 154 148 145 142 140 139 138 138 135 130 126 128 129 121
346 359 337 28 38 30 30 19 22 21 10 4 358 352 352 23 11 3 11 13 9 17 33 43 56 56 21 328 339 70 59 21 358 346 27 63 73 73 74 79 71 56 59 69 132 246 271 269 279 284 279 280 278 263 260 262 257 253 246 241 240 237 236 233 222 216 212 209 210 207 203 201 196 191 188 186 181 176 171 168 172 168 161 156 151 147 142 143 144 143 144 138 131 130 130 130 124
315 314 297 6 26 2 14 14 12 356 352 351 352 357 346 6 14 4 5 357 350 359 25 37 33 48 57 325 313 72 70 35 5 347 11 35 59 71 67 64 45 29 31 14 337 298 269 271 290 282 284 301 295 272 263 264 256 247 240 237 237 237 239 237 231 224 214 209 206 202 202 204 202 199 193 185 177 173 168 169 175 170 162 158 154 148 145 150 150 149 145 136 131 133 131 128 125
283 284 305 332 337 324 328 335 348 321 322 337 334 344 346 329 330 349 358 343 329 332 346 10 18 20 128 360 318 69 84 57 24 355 357 19 44 62 74 66 28 13 18 4 340 328 329 344 11 341 327 327 297 282 275 270 261 246 236 235 231 231 237 236 232 225 216 210 204 201 203 204 203 201 194 184 174 167 167 170 174 168 161 160 156 149 149 153 153 150 142 133 131 132 132 128 125
270 320 326 311 313 310 297 303 319 311 309 323 316 318 330 313 309 331 346 332 306 299 331 318 338 322 204 111 339 52 91 73 40 357 348 16 40 50 69 71 35 10 6 355 351 343 351 13 26 20 8 354 317 295 284 281 269 251 240 239 230 219 227 231 228 223 219 213 207 203 201 199 198 195 185 179 170 163 166 172 173 165 161 161 155 150 150 152 153 152 143 135 132 129 131 128 125
274 318 307 289 304 307 310 315 314 311 308 309 306 305 307 300 304 321 334 326 289 273 318 295 299 303 248 146 65 61 92 83 55 9 349 13 30 41 47 61 43 13 2 350 353 358 6 18 25 25 16 6 352 335 330 324 296 255 241 245 229 206 207 217 213 214 216 209 206 201 194 195 197 189 179 173 167 163 167 172 169 162 160 158 154 153 152 152 154 155 146 137 134 131 127 118 118
286 291 286 282 294 306 322 319 302 298 304 302 298 296 293 292 298 305 306 309 294 278 285 264 268 282 265 195 114 89 84 81 72 35 359 3 27 45 30 48 46 13 6 359 356 1 10 21 25 27 26 23 14 12 26 21 354 261 192 136 159 183 189 193 187 192 194 190 194 192 189 194 193 187 179 172 167 167 170 169 164 159 158 156 156 156 153 153 153 152 144 136 136 133 124 116 118
281 284 268 277 287 307 315 306 301 301 306 299 288 284 284 286 289 289 283 284 287 275 267 249 239 248 269 215 141 120 93 87 87 63 4 355 25 50 30 34 42 19 9 3 359 359 6 22 27 29 32 29 23 28 41 54 78 114 136 113 113 148 178 173 160 172 175 172 176 177 183 186 180 179 177 172 172 173 171 164 159 158 157 155 157 156 153 153 151 151 141 133 136 130 120 120 125
267 279 269 273 281 299 300 298 308 313 310 299 290 289 290 292 291 289 281 271 276 274 258 242 229 219 232 205 169 149 117 121 108 88 32 5 22 49 44 33 34 19 12 9 1 360 8 25 31 33 36 30 26 39 53 69 95 102 119 124 118 128 155 157 144 156 165 163 165 167 175 175 168 170 172 172 174 174 168 160 157 156 155 155 158 157 155 155 156 153 139 134 135 120 112 117 130
246 264 273 279 283 294 293 293 306 313 308 301 298 295 290 288 284 285 285 275 285 285 241 223 224 210 201 209 199 166 133 166 128 103 69 37 37 51 43 33 33 19 14 13 4 6 20 30 35 39 42 37 33 46 65 79 91 95 104 112 112 119 138 146 137 145 148 151 158 162 169 169 162 162 165 168 170 169 163 158 154 151 152 158 161 158 156 158 155 145 133 132 126 115 116 123 140
240 247 261 277 290 299 294 298 316 317 309 308 301 280 276 280 273 280 287 283 291 272 213 206 212 209 203 212 216 189 196 221 126 99 80 58 54 53 41 26 26 26 16 5 6 20 31 34 40 47 47 43 40 49 67 79 88 91 94 99 105 112 117 111 118 131 135 143 153 159 162 160 157 158 160 162 163 162 160 157 149 145 150 159 160 156 155 154 145 133 127 123 111 115 124 127 143
247 248 249 268 292 299 302 313 325 319 310 317 309 279 277 285 278 281 281 280 281 233 197 202 204 205 209 214 220 214 211 230 182 89 78 62 59 47 42 33 19 26 19 3 12 25 36 41 47 54 55 51 50 57 67 74 83 88 93 99 100 105 106 101 103 114 126 140 147 154 155 152 154 156 158 159 157 158 158 152 143 145 155 159 157 153 150 146 138 130 126 115 105 121 125 119 131
244 252 253 272 294 299 309 317 324 323 316 323 325 305 293 292 286 280 272 278 271 209 189 198 198 200 209 214 218 227 230 199 243 85 75 54 59 51 39 39 22 31 20 9 19 25 35 44 48 55 61 57 54 62 72 79 83 88 95 96 95 100 101 98 98 99 114 137 146 150 151 150 152 153 154 155 154 154 153 147 143 151 159 157 154 151 147 140 135 133 131 121 113 131 127 116 127
239 248 250 264 285 302 308 308 317 324 320 325 333 327 303 292 292 277 269 278 252 197 186 190 191 200 206 207 210 225 246 217 258 302 71 48 57 58 41 34 25 42 37 24 31 31 35 42 47 54 61 61 59 66 79 89 92 97 100 97 100 104 100 97 101 101 109 131 145 148 148 148 148 148 148 149 150 148 148 147 147 152 155 153 153 148 143 137 135 132 127 125 126 140 131 119 131
235 245 244 248 270 297 298 299 318 326 324 327 336 339 317 292 290 273 266 273 214 186 183 187 188 194 198 196 199 215 239 257 281 295 35 43 57 56 37 22 21 39 46 37 35 41 45 46 48 51 56 63 65 68 78 89 98 105 104 102 107 110 105 106 111 112 112 121 137 145 143 142 144 144 143 145 145 144 147 147 145 147 149 150 148 141 138 139 136 124 116 131 134 139 130 111 116
226 242 244 253 268 293 295 300 319 324 322 327 339 342 330 302 282 263 262 244 188 180 180 183 186 189 188 185 190 207 218 251 294 295 325 6 41 53 43 15 19 33 45 41 29 32 42 48 51 50 51 59 64 69 76 84 95 103 104 109 113 110 108 112 116 115 113 117 132 142 140 139 143 142 142 143 142 143 149 147 143 145 145 147 144 137 137 139 135 126 123 136 131 126 123 109 109
231 242 247 258 264 279 288 296 304 305 315 329 341 342 333 308 271 249 245 208 177 176 175 175 184 186 183 176 180 203 211 218 262 279 299 316 350 47 63 31 29 34 42 47 32 23 32 46 54 52 49 54 64 71 77 88 101 107 108 114 116 111 111 115 116 116 115 119 129 139 140 140 142 140 139 138 136 142 147 144 143 142 141 145 143 134 132 130 125 124 120 122 118 113 115 114 123
229 238 243 251 251 270 280 290 301 301 315 329 339 345 348 347 76 134 175 174 162 166 170 171 182 187 182 172 176 194 203 209 226 256 280 271 286 34 63 43 33 35 45 55 42 23 21 39 53 58 53 51 61 70 76 88 101 111 114 115 115 111 112 114 113 115 117 120 126 134 138 138 137 134 132 132 135 142 144 140 138 138 139 144 142 132 126 122 115 106 99 106 109 103 95 96 121
231 238 251 256 236 243 273 284 310 314 324 328 332 345 360 31 65 89 122 154 156 161 165 170 185 191 183 172 179 192 196 207 217 235 268 269 255 355 67 54 43 37 49 59 52 30 17 28 47 60 63 57 58 64 68 76 86 100 108 110 112 110 109 110 109 111 115 118 122 126 129 129 128 126 125 129 137 141 141 137 136 137 138 137 133 127 120 117 110 100 99 112 109 100 95 99 122
228 215 253 269 244 239 295 311 321 316 320 329 335 345 9 37 42 71 111 141 161 161 163 178 191 193 188 181 184 194 198 202 212 225 252 276 259 226 111 72 61 50 44 50 58 42 20 20 36 56 66 67 66 65 64 70 76 85 95 103 114 117 113 112 112 113 115 117 119 121 123 123 124 124 126 134 139 137 138 138 138 136 130 126 123 118 112 108 103 95 97 113 113 106 113 132 124
203 183 193 265 264 258 327 331 313 302 307 319 323 331 3 36 45 81 114 138 163 169 173 186 198 195 193 198 196 199 203 201 207 221 235 258 265 258 200 94 76 69 61 44 61 56 30 17 27 48 63 72 76 76 75 75 77 80 87 96 108 117 116 114 112 114 118 119 121 122 122 123 125 129 134 139 137 135 139 139 134 129 125 122 118 112 110 107 102 99 94 103 113 110 112 120 112
206 187 168 211 276 271 306 310 284 273 290 297 293 303 325 341 100 167 185 180 185 199 196 196 202 197 195 204 205 207 210 205 207 217 226 234 248 269 257 148 104 102 95 82 63 64 48 25 23 41 59 73 79 82 83 83 83 85 91 96 98 105 112 114 113 118 123 124 126 127 127 130 132 136 137 137 136 136 139 136 128 125 126 122 115 110 109 108 102 99 97 107 114 109 107 110 116
202 176 159 166 240 276 286 294 274 249 251 271 270 277 271 268 250 236 233 232 237 235 225 213 207 201 200 204 205 208 214 216 212 211 220 226 231 247 246 217 169 139 118 117 120 75 69 44 29 37 55 73 81 83 85 84 85 86 90 98 101 104 108 114 121 130 135 133 132 133 133 135 136 137 137 136 136 138 137 133 127 127 127 120 115 110 105 104 98 95 102 112 111 112 120 132 137
191 174 177 166 157 293 280 279 269 252 269 289 273 265 246 254 258 250 255 258 259 254 240 226 219 212 208 206 205 206 210 219 220 215 218 223 227 232 233 225 209 172 143 132 144 147 126 78 46 39 52 74 86 88 86 84 83 83 83 89 99 106 108 112 122 131 135 132 132 134 133 134 136 137 138 136 135 137 138 135 132 131 128 120 115 111 107 104 96 96 106 118 123 124 127 139 143
188 163 168 162 156 238 260 265 268 260 272 279 263 265 252 255 255 244 248 255 262 259 242 232 228 223 219 214 211 209 207 212 217 219 223 227 228 230 231 223 213 199 165 144 150 169 188 140 77 54 54 71 90 93 91 85 80 79 80 82 87 93 98 104 112 118 123 126 130 133 133 135 137 136 138 138 136 140 143 141 138 136 132 125 119 113 106 95 93 105 116 122 134 136 133 136 137
188 162 158 170 167 214 259 269 275 264 251 236 227 250 246 246 251 251 256 251 249 258 253 245 233 223 222 221 220 216 210 212 214 216 222 227 227 226 230 225 214 208 186 158 154 163 193 189 139 93 71 75 95 100 96 89 82 78 77 79 82 84 87 93 100 107 114 122 128 130 132 136 137 137 138 140 142 144 146 147 144 142 137 132 131 122 101 86 90 117 129 125 129 136 137 131 129
194 186 174 178 169 184 225 231 241 249 252 246 232 242 244 247 252 260 276 269 263 272 275 256 231 222 222 220 221 218 213 215 218 217 218 222 224 224 228 232 226 215 200 181 164 160 180 200 192 155 111 87 102 115 108 96 90 84 79 78 81 83 85 88 94 102 109 117 126 127 130 137 138 138 142 147 148 147 148 151 150 144 139 139 138 126 109 98 101 123 137 134 134 136 140 142 150
200 202 183 187 185 186 202 210 214 225 242 253 252 254 256 256 255 259 273 278 278 278 280 265 233 227 227 227 222 212 209 216 220 221 221 219 222 225 227 235 237 227 214 200 181 167 168 190 205 192 162 131 120 134 129 114 101 95 90 86 83 83 88 91 94 99 106 113 121 125 130 138 140 141 146 151 148 146 150 152 147 140 140 146 142 130 117 107 113 137 145 142 138 137 141 156 167
206 213 193 200 205 203 214 223 224 227 234 241 253 271 269 264 259 259 266 277 284 283 276 278 274 243 236 243 230 210 209 216 218 224 227 222 221 224 227 232 236 233 226 214 201 190 173 176 196 204 198 173 152 166 154 141 128 112 107 103 98 96 97 100 102 103 107 113 118 124 131 139 142 143 146 150 151 151 155 152 142 144 146 153 150 137 129 124 139 162 156 150 146 144 149 159 163
212 229 205 211 220 222 229 245 247 243 244 247 243 245 259 265 258 253 258 267 272 278 279 280 285 280 268 261 236 221 224 221 215 220 226 224 222 225 227 228 233 235 231 223 214 208 191 179 188 200 206 197 179 181 179 168 157 142 138 131 123 121 117 113 115 116 118 121 124 128 134 140 142 145 147 152 156 157 164 158 154 165 161 168 174 154 148 153 166 170 163 163 164 164 168 168 164
212 235 222 212 216 220 238 279 255 235 267 288 264 240 241 255 260 257 261 272 273 271 275 278 281 281 282 281 256 237 233 223 217 222 227 225 222 227 228 226 232 234 232 229 223 219 206 188 188 193 203 205 196 190 191 193 181 167 166 164 156 151 145 138 135 135 136 139 139 138 142 145 147 151 154 159 166 169 181 176 177 195 186 192 203 178 165 167 171 172 171 175 177 182 193 193 193
148 181 180 177 190 227 345 6 91 71 32 9 314 250 238 249 260 267 272 279 281 277 273 272 276 277 276 283 279 257 237 227 225 228 231 230 225 227 228 225 230 232 232 231 226 225 219 200 192 191 197 204 201 198 196 200 199 187 183 185 184 184 179 176 168 162 158 158 159 157 160 161 163 171 175 178 186 188 198 195 194 206 205 206 206 188 177 174 175 177 179 181 182 190 202 207 215
83 75 114 134 68 16 328 323 50 354 335 343 305 260 250 258 264 274 280 280 281 282 282 279 278 277 276 283 282 272 255 238 233 231 232 233 228 227 229 227 228 228 230 233 227 226 226 214 201 196 199 204 202 201 200 203 208 202 197 196 199 203 204 206 202 192 183 180 180 178 179 182 184 189 192 198 203 201 205 205 204 211 212 210 204 192 186 183 183 185 188 190 191 196 203 210 218
70 346 63 142 156 275 261 259 294 304 258 263 267 245 245 258 263 276 283 284 286 284 283 283 284 278 270 275 279 274 264 247 238 233 229 231 231 229 229 228 226 223 225 231 228 225 227 222 212 204 204 206 205 203 201 202 206 207 206 205 204 209 213 216 220 218 208 198 193 189 190 195 198 201 204 208 212 211 211 211 211 213 212 212 209 201 198 196 195 195 198 201 202 206 210 213 219
111 213 201 148 163 269 258 236 249 246 216 243 255 242 247 256 260 276 281 283 287 283 278 274 274 277 268 263 268 269 264 249 236 231 228 231 234 233 232 230 228 225 222 226 226 225 227 226 219 212 208 208 208 207 205 204 206 207 208 209 209 211 214 218 223 227 226 216 207 201 199 201 204 208 209 212 216 218 219 220 219 218 217 218 216 213 213 213 212 210 211 214 215 218 222 222 224
165 180 190 174 170 216 240 228 235 240 235 243 246 243 256 264 266 273 274 274 275 274 274 263 255 259 258 256 262 266 269 260 240 231 231 234 236 237 236 232 230 229 225 225 225 224 225 225 222 218 213 210 210 210 209 207 206 207 208 209 211 212 212 216 220 224 227 223 217 213 210 210 212 215 216 216 220 223 226 229 229 228 227 228 229 227 227 227 226 224 222 222 224 228 230 231 232
182 182 193 176 173 203 225 226 229 227 230 240 242 237 240 247 255 260 259 258 260 263 267 260 250 249 245 241 247 252 256 259 254 242 234 233 233 236 239 235 231 229 226 226 227 227 228 230 229 227 222 215 210 210 214 215 210 209 210 209 209 213 214 214 217 221 223 222 220 218 218 217 216 219 222 221 222 224 228 234 235 235 234 235 237 237 237 238 236 235 234 231 232 236 238 239 242
189 146 147 173 192 216 217 223 217 204 219 249 256 250 248 251 254 265 271 269 271 273 271 266 258 254 250 242 241 244 244 246 252 256 245 238 236 238 242 241 236 231 226 225 229 230 229 230 229 228 230 230 223 215 214 219 219 214 213 213 210 210 213 215 216 219 220 220 220 220 219 220 220 221 224 224 224 224 227 233 235 237 238 240 241 241 241 242 240 242 243 239 239 243 244 246 248
188 201 187 175 209 216 206 229 204 195 225 265 267 260 263 271 264 270 281 279 277 274 274 277 273 267 265 259 253 252 250 244 244 251 257 252 249 249 249 249 243 234 229 228 228 229 228 226 223 220 225 232 237 236 230 226 226 222 218 217 216 214 213 213 215 217 219 220 220 222 221 221 221 222 225 227 227 226 227 230 235 237 238 239 242 245 244 242 241 243 246 245 244 246 248 251 253
186 221 226 229 244 224 214 207 196 194 227 248 257 257 258 263 257 257 266 267 264 263 271 279 276 272 274 277 271 262 257 251 242 240 243 245 249 250 251 254 249 239 235 234 231 230 229 224 221 222 226 228 232 239 240 236 233 231 227 222 222 222 219 216 216 216 218 219 219 220 222 224 225 225 228 231 232 233 233 234 235 238 241 242 242 244 245 243 240 239 241 243 246 247 248 251 254
198 221 214 213 230 232 215 199 204 213 223 229 236 243 249 253 255 257 261 265 267 271 282 285 275 270 270 271 268 260 256 252 243 236 229 224 229 237 243 252 253 245 241 239 236 235 231 225 224 228 230 227 224 224 227 233 236 237 238 234 230 229 229 228 226 224 223 222 222 222 221 222 224 225 228 233 237 240 242 243 244 244 245 247 247 247 248 248 246 244 243 244 247 250 248 248 250